Powrót do katalogu

SL-8 R/B

AktywnyLEO
NORAD 5730·ROCKET BODY·🇷🇺 Russia

Wystrzelony Dec 27, 1971 z Plesetsk Cosmodrome

Loading…

Następne Przeloty (najbliższe 24 godziny)

TLE

ŚwieżeSource: Space-Track

Epoka: Sep 14, 2026, 05:27 UTC

1 05730U 71119B   26257.22713965  .00005582  00000-0  28812-3 0  9995
2 05730  73.8867 182.4661 0538114 110.2137 255.7711 14.40353594682610

Śledź SL-8 R/B w czasie rzeczywistym z AllMySat

Download on the App Store